Flagstaff, AZ

1:18 AM MST on April 21, 2018 (GMT -0700)
Flagstaff Pulliam

Weather History for KFLG - February, 2014

Change the Weather History Date:

Saturday, February 8, 2014

  Actual Average Record
Temperature  
Mean Temperature 40 °F 31 °F  
Max Temperature 53 °F 44 °F 65 °F (1996)
Min Temperature 27 °F 18 °F -17 °F (1933)
Degree Days  
Heating Degree Days 25 34  
Month to date heating degree days 295 272  
Since 1 July heating degree days 4114 4188  
Cooling Degree Days 0 0  
Month to date cooling degree days 0 0  
Year to date cooling degree days 0 0  
Moisture  
Dew Point 28 °F    
Average Humidity 67    
Maximum Humidity 92    
Minimum Humidity 42    
Precipitation  
Precipitation 0.00 in 0.07 in 2.05 in (1993)
Month to date precipitation 0.12 0.57  
Year to date precipitation 0.29 2.62  
Snow  
Snow 0.00 in 0.80 in 12.90 in (2009)
Month to date snowfall 2.1 6.3  
Since 1 July snowfall 33.5 58.6  
Snow Depth 0.00 in    
Sea Level Pressure  
Sea Level Pressure 30.14 in    
Wind  
Wind Speed 8 mph (SW)    
Max Wind Speed 20 mph    
Max Gust Speed 24 mph    
Visibility 10 miles    
Events      
T = Trace of Precipitation, MM = Missing Value Source: NWS Daily Summary

Daily Weather History Graph

Daily Weather History Graph

Search for Another Location

Airport or City:

Astronomy

Feb. 08, 2014 Rise Set
Actual Time 7:19 AM MST 6:02 PM MST
Civil Twilight 6:53 AM MST 6:28 PM MST
Nautical Twilight 6:23 AM MST 6:58 PM MST
Astronomical Twilight 5:53 AM MST 7:28 PM MST
Moon 1:02 PM MST (2/8) 2:32 AM MST (2/8)
Length of Visible Light 11h 35m
Length of Day
10h 42m
Waxing Gibbous, 69% of the Moon is Illuminated
Feb 8
Waxing Gibbous
Feb 14
Full
Feb 22
Last Quarter
Mar 1
New
Mar 8
First Quarter

Hourly Weather History & Observations

Time (MST) Temp. Windchill Dew Point Humidity Pressure Visibility Wind Dir Wind Speed Gust Speed Precip Events Conditions
12:57 AM 32.0 °F 24.8 °F 28.0 °F 85% 30.09 in 10.0 mi WSW 8.1 mph - N/A   Overcast
1:46 AM 30.9 °F 25.2 °F 28.9 °F 92% 30.15 in 10.0 mi WSW 5.8 mph - N/A   Overcast
1:57 AM 30.9 °F 24.3 °F 28.0 °F 89% 30.12 in 10.0 mi WSW 6.9 mph - N/A   Mostly Cloudy
2:57 AM 30.9 °F 25.2 °F 28.9 °F 92% 30.12 in 10.0 mi WSW 5.8 mph - N/A   Mostly Cloudy
3:57 AM 30.9 °F 26.2 °F 28.9 °F 92% 30.12 in 10.0 mi WSW 4.6 mph - N/A   Mostly Cloudy
4:57 AM 28.9 °F 25.2 °F 27.0 °F 92% 30.12 in 10.0 mi SW 3.5 mph - N/A   Mostly Cloudy
5:25 AM 28.0 °F 21.7 °F 27.0 °F 96% 30.16 in 10.0 mi SW 5.8 mph - N/A   Scattered Clouds
5:49 AM 28.0 °F 22.8 °F 25.0 °F 88% 30.17 in - SW 4.6 mph - N/A   Mostly Cloudy
5:57 AM 28.0 °F 24.2 °F 26.1 °F 92% 30.16 in - WSW 3.5 mph - N/A   Mostly Cloudy
6:44 AM 30.0 °F 24.1 °F 27.0 °F 88% 30.18 in 10.0 mi WSW 5.8 mph - N/A   Scattered Clouds
6:57 AM 28.9 °F 23.9 °F 27.0 °F 92% 30.18 in 10.0 mi West 4.6 mph - N/A   Partly Cloudy
7:57 AM 30.0 °F 24.1 °F 27.0 °F 88% 30.18 in 10.0 mi WSW 5.8 mph - N/A   Clear
8:57 AM 34.0 °F 28.8 °F 27.0 °F 75% 30.18 in 10.0 mi SW 5.8 mph - N/A   Clear
9:57 AM 39.0 °F 34.0 °F 28.0 °F 65% 30.18 in 10.0 mi SSW 6.9 mph - N/A   Clear
10:57 AM 44.1 °F 38.6 °F 28.9 °F 55% 30.14 in 10.0 mi SSW 10.4 mph - N/A   Clear
11:57 AM 48.9 °F - 26.1 °F 41% 30.15 in 10.0 mi West 8.1 mph - N/A   Clear
12:57 PM 50.0 °F - 32.0 °F 50% 30.12 in 10.0 mi SSW 13.8 mph - N/A   Clear
1:57 PM 52.0 °F - 30.0 °F 43% 30.08 in 10.0 mi SSW 10.4 mph - N/A   Clear
2:57 PM 52.0 °F - 33.1 °F 49% 30.08 in 10.0 mi SW 16.1 mph - N/A   Clear
3:57 PM 46.9 °F - 30.9 °F 54% 30.10 in 10.0 mi SSW 16.1 mph - N/A   Clear
4:57 PM 46.0 °F 39.9 °F 30.0 °F 54% 30.13 in 10.0 mi SSW 13.8 mph - N/A   Overcast
5:57 PM 42.1 °F 36.6 °F 30.0 °F 62% 30.16 in 10.0 mi SSW 9.2 mph - N/A   Partly Cloudy
6:57 PM 36.0 °F - 28.0 °F 73% 30.17 in - Calm Calm - N/A   Clear
7:57 PM 35.1 °F 32.2 °F 28.0 °F 76% 30.18 in 10.0 mi West 3.5 mph - N/A   Partly Cloudy
8:57 PM 32.0 °F 28.7 °F 28.0 °F 85% 30.19 in 10.0 mi West 3.5 mph - N/A   Partly Cloudy
9:57 PM 36.0 °F 33.3 °F 28.9 °F 76% 30.17 in 10.0 mi West 3.5 mph - N/A   Overcast
10:57 PM 37.9 °F 33.5 °F 30.0 °F 73% 30.15 in 10.0 mi WSW 5.8 mph - N/A   Overcast
11:57 PM 37.0 °F 29.8 °F 30.0 °F 76% 30.11 in 10.0 mi WSW 10.4 mph - N/A   Partly Cloudy